Regional Weather Roundup
Issued by NWS

Home | Current Version | Previous Version | Text Only | Print | Product List | Glossary On
Versions: 1 2 3 4 5 6 7 8 9 10 11 12 13 14 15 16 17 18 19 20 21 22 23 24 25 26 27 28 29 30 31 32 33 34 35 36 37 38 39 40 41 42 43 44 45 46 47 48 49 50
000
ASUS42 KTBW 230016
RWRFL
FLORIDA REGIONAL WEATHER ROUNDUP
NATIONAL WEATHER SERVICE TAMPA BAY RUSKIN FL
700 PM EST SUN JAN 22 2017

NOTE: "FAIR" INDICATES FEW OR NO CLOUDS BELOW 12,000 FEET WITH NO
SIGNIFICANT WEATHER AND/OR OBSTRUCTIONS TO VISIBILITY.

FLZ001>010-012>015-112-114-115-230100-
PANHANDLE FLORIDA

CITY           SKY/WX    TMP DP  RH WIND       PRES   REMARKS
PENSACOLA      PTCLDY    65  42  43 W14       29.40R
PENSACOLA NAS  LGT RAIN  63  45  51 SW17G28   29.41R
MILTON NAS     LGT RAIN  59  47  64 SW5       29.40
CRESTVIEW      MOCLDY    59  47  64 SW3       29.41R
DUKE FIELD     MOCLDY    62  44  51 SW6       29.39R
VALPARAISO     MOCLDY    64  50  61 W12G20    29.41R
MARY ESTHER    MOCLDY    65  29  26 W17G24    29.40R
PANAMA CITY    FAIR      63  52  67 SW12G18   29.41R
TYNDALL AFB    PTCLDY    65  53  65 W16G24    29.43S
APALACHICOLA   CLEAR     65  51  60 W14G23    29.45R

STATION/POSITION SKY/WX   TEMP    WIND        PRES    WAVE   SWELL
                          AIR SEA DIR/SP/G            HT/PER HT/PER
                          (F)     (DEG/KT/KT) (MB)    (FT/S) (FT/S)
30.1N   87.6W              66 66  260/ 25/ 33  995.4    7/ 8
28.8N   86.0W              71 75               997.6   12/ 9
PANAMA CITY BEAC              68  260/ 25/ 30  996.6R
TOWER C                    68     270/ 29/ 33  998.4R
28.5N   84.5W              73 74  270/ 29/ 35  997.3   12/ 9   8/ 9

$$
FLZ011-016>038-118-127-128-134-139-239-230100-
NORTH FLORIDA

CITY           SKY/WX    TMP DP  RH WIND       PRES   REMARKS
MARIANNA       CLEAR     60  48  64 SW6       29.40R
TALLAHASSEE    PTCLDY    64  47  53 W14       29.42R
PERRY          MOCLDY    66  58  73 W16G23    29.44R
CROSS CITY     PTCLDY    66  61  82 W17G25    29.46R
LAKE CITY      FAIR      68  68 100 SW14G21   29.39S
GAINESVILLE    CLOUDY    79  67  66 SW17G28   29.42R
WILLISTON      CLEAR     73  68  83 SW20G31   29.46R
PALATKA        CLOUDY    75  73  94 S13G23    29.39F
MAYPORT NAS    CLOUDY    75  68  78 S18G30    29.32F
JACKSONVILLE   TSTM      75  70  84 SW15G32   29.31F
JAX NAS        CLOUDY    74  69  85 S14G23    29.35F THUNDER
FERNANDINA BEA MOCLDY    77  70  78 S18G28    29.30F
ST AUGUSTINE   MOCLDY    78  68  71 MISG      29.37F
PALM COAST     PTCLDY    77  68  73 MISG      29.43F

STATION/POSITION SKY/WX   TEMP    WIND        PRES    WAVE   SWELL
                          AIR SEA DIR/SP/G            HT/PER HT/PER
                          (F)     (DEG/KT/KT) (MB)    (FT/S) (FT/S)
SHELL POINT      NOT AVBL
KEATON BEACH               67     260/ 22/ 25  997.2R
CEDAR KEY                  70     250/ 21/ 27  997.4R
FERNANDINA                    66  170/  9/ 17  993.9F
30.7N   81.3W                 63                N/A     4/ 7
MAYPORT                       65  200/ 10/ 23  992.7F
31.4N   80.9W              63 60  110/ 17/ 21  994.9    4/ 7   2/14
ST AUGUSTINE               78 67  200/ 23/ 31  994.9F

$$
FLZ040-043>046-052-053-057-058-063-144-230100-
INTERIOR CENTRAL FLORIDA

CITY           SKY/WX    TMP DP  RH WIND       PRES   REMARKS
OCALA          MOCLDY    70  63  78 SW20G32   29.47R
THE VILLAGES     N/A     73  73 100 SE23G36   29.35S
LEESBURG       TSTM      68  64  87 NW13G41   29.45F VSB 1/2
SANFORD        CLOUDY    79  68  69 S20G32    29.46F
ORLANDO EXEC   CLOUDY    77  69  76 S21G29    29.47F THUNDER
ORLANDO INTL   MOCLDY    78  68  71 S22G35    29.49F THUNDER
KISSIMMEE      MOCLDY    79  70  73 S26G37    29.50F
WINTER HAVEN   CLOUDY    77  68  73 S26G43    29.51F
LAKELAND       RAIN      75  72  88 SW25G41   29.52F
BARTOW         CLOUDY    77  68  73 S18G41    29.52F
OKEECHOBEE     MOCLDY    77  66  69 S15G25    29.63F

$$
FLZ041-047-054-059-064-141-147-230100-
EAST CENTRAL FLORIDA

CITY           SKY/WX    TMP DP  RH WIND       PRES   REMARKS
ORMOND BEACH   PTCLDY    75  70  83 S26G35    29.46F
DAYTONA BEACH  CLOUDY    79  68  69 S22G30    29.45F THUNDER
DELAND         TSTM      77  70  78 S24G31    29.48S
NEW SMYRNA BEA PTCLDY    81  68  65 SW29G44   29.47F
JFK SPACE CTR  MOCLDY    79  68  68 SW20G32   29.50F
TITUSVILLE     MOCLDY    79  66  65 SW23G35   29.53F
CAPE CANAVERAL CLEAR     79  68  69 SW21G31   29.51F
PATRICK AFB    CLEAR     79  67  67 SW25G33   29.54F
MELBOURNE      CLEAR     79  66  64 S23G32    29.55F
VERO BEACH     PTCLDY    79  66  64 SW17G24   29.60F
FT PIERCE      PTCLDY    79  66  64 SW18      29.61S

STATION/POSITION SKY/WX   TEMP    WIND        PRES    WAVE   SWELL
                          AIR SEA DIR/SP/G            HT/PER HT/PER
                          (F)     (DEG/KT/KT) (MB)    (FT/S) (FT/S)
TRIDENT PIER     NOT AVBL
28.4N   80.5W                 71                N/A     4/ 5
27.5N   80.2W                 75                N/A     5/ 5   2/15

$$
FLZ050-056-061-142-242-148-248-149-249-151-251-155-255-
160-260-230100-
WEST CENTRAL FLORIDA

CITY           SKY/WX    TMP DP  RH WIND       PRES   REMARKS
INVERNESS      TSTM      70  70 100 SW12G26   29.47R VSB 1
BROOKSVILLE    TSTM      65  63  93 W25G33    29.52R FOG
CLEARWATER AIR CLOUDY    73  70  88 SW14G31   29.52R
ST PETE CLEARW CLOUDY    76  70  82 SW25G35   29.52R
TAMPA INTL     MOCLDY    75  70  84 S24G33    29.51F
TAMPA EXEC     MOCLDY    77  70  78 SW26G38   29.52F
PLANT CITY     LGT RAIN  77  73  88 SW15G37   29.53F
MACDILL AFB    PTCLDY    72  72 100 NW24G36   29.52S
PETER O KNIGHT PTCLDY    75  72  88 SW26G38   29.53R
ST PETERSBURG  PTCLDY    74  71  91 SW20G33   29.51R
SARASOTA       CLOUDY    74  71  91 S28G43    29.52F
VENICE         MOCLDY    73  72  94 S20G32    29.58F FOG

STATION/POSITION SKY/WX   TEMP    WIND        PRES    WAVE   SWELL
                          AIR SEA DIR/SP/G            HT/PER HT/PER
                          (F)     (DEG/KT/KT) (MB)    (FT/S) (FT/S)
27.3N   84.2W                 77                N/A    12/ 9   2/11
CLEARWATER BEACH                  190/ 25/ 29  999.1R
MIDDLE TAMPA BAY                  220/ 21/ 29 1000.0F
VENICE                     73 72  180/ 26/ 30 1001.1F

$$
FLZ066-069-070-075>078-162-262-165-265-230100-
SOUTHWEST FLORIDA AND KEYS

CITY           SKY/WX    TMP DP  RH WIND       PRES   REMARKS
PUNTA GORDA    CLOUDY    77  71  82 S24G32    29.62F
FT MYERS       MOCLDY    77  72  84 S14G30    29.62F
SOUTHWEST INTL MOCLDY    78  70  76 SW23G33   29.63F
NAPLES         CLOUDY    76  71  85 S20G28    29.64F
MARCO ISLAND   CLOUDY    57 N/A N/A S18G25    29.66F
MARATHON       CLEAR     82  71  69 SW13G21   29.72R
KEY WEST NAS   CLEAR     79  71  76 S23G29    29.72S
KEY WEST INTL  CLEAR     80  73  79 S17       29.72S

STATION/POSITION SKY/WX   TEMP    WIND        PRES    WAVE   SWELL
                          AIR SEA DIR/SP/G            HT/PER HT/PER
                          (F)     (DEG/KT/KT) (MB)    (FT/S) (FT/S)
NAPLES                        73              1003.7F
26.0N   85.6W              75 76  260/ 21/ 25 1002.7R  10/ 8
DRY TORTUGAS               79     210/ 15/ 17 1005.3F
SAND KEY                   79     210/ 21/ 25 1006.7R
LONG KEY                   79 76  220/ 17/ 19 1006.7R

$$
FLZ067-068-071>074-168-172>174-230100-
SOUTHEAST FLORIDA

CITY           SKY/WX    TMP DP  RH WIND       PRES   REMARKS
W PALM BEACH   PTCLDY    79  66  64 SW17G26   29.67F
BOCA RATON     CLEAR     81  66  61 SW18G24   29.68
FT LAUDER-EXEC CLEAR     80  65  59 SW14G22   29.68S
FT LAUDERDALE  PTCLDY    80  68  66 SW14G22   29.68F
POMPANO BEACH  CLEAR     81  67  62 SW18G26   29.68F
PEMBROKE PINES CLEAR     80  67  64 S13       29.71R
OPA LOCKA      CLEAR     80  68  66 S18G25    29.70S
MIAMI          PTCLDY    81  69  67 S15G23    29.71S
WEST KENDALL   CLEAR     78  70  76 S8        29.71R
HOMESTEAD      CLEAR     76  76  98 S10       29.71R

STATION/POSITION SKY/WX   TEMP    WIND        PRES    WAVE   SWELL
                          AIR SEA DIR/SP/G            HT/PER HT/PER
                          (F)     (DEG/KT/KT) (MB)    (FT/S) (FT/S)
PORT EVERGLADES            78     180/  8/ 16 1005.5F
VIRGINIA KEY                  81  200/ 15/ 18 1006.3S
LAKE WORTH                    76              1004.6R
FOWEY ROCKS                77 75  190/ 24/ 26 1006.6R

$$





USA.gov is the U.S. government's official web portal to all federal, state and local government web resources and services.